Regional Weather Roundup
Issued by NWS Binghamton, NY

Home | Current Version | Previous Version | Text Only | Print | Product List | Glossary On
Versions: 1 2 3 4 5 6 7 8 9 10 11 12 13 14 15 16 17 18 19 20 21 22 23 24 25 26 27 28 29 30 31 32 33 34 35 36 37 38 39 40 41 42 43 44 45 46 47 48 49 50
000
ASUS41 KBGM 201010
RWRBGM

REGIONAL WEATHER ROUNDUP
NATIONAL WEATHER SERVICE BINGHAMTON NY
500 AM EST MON NOV 20 2017

Note: "fair" indicates few or no clouds below 12,000 feet with no
significant weather and/or obstructions to visibility.

* = Station(s) that does not report precipitation, such as rain,
snow, etc, also no thunder or fog.

NYZ009-015>018-022>025-036-037-044>046-055>057-062-201100
...Central New York...

CITY           SKY/WX    TMP DP  RH WIND       PRES   REMARKS
Binghamton     CLOUDY    28  18  66 W8        29.85R WCI  20
Cortland       CLOUDY    30  23  74 W3        29.89R
Dansville      CLOUDY    31  25  78 N6        29.95R WCI  25
Elmira         CLOUDY    33  24  69 W10       29.92R WCI  25
Seneca Falls   CLOUDY    30  23  74 NW7       29.93R WCI  23
Ithaca         CLOUDY    30  21  69 W13       29.90R WCI  20
Hamilton       CLOUDY    27  23  86 NW3       29.86R
Hornell        FLURRIES  30  25  80 NW13G18   29.96R WCI  20
Monticello     FLURRIES  29  22  75 W9        29.85R WCI  20
Penn Yan       CLOUDY    32  18  56 W14G25    29.90R WCI  22
Rome           FLURRIES  27  20  75 NW14      29.90R WCI  16
Sidney         CLOUDY    28  21  74 W6        29.88R WCI  22
Syracuse       FLURRIES  28  27  96 SW7       29.90R WCI  21
$$

PAZ038>040-043-044-047-048-072-201100
...Northeast Pennsylvania...

CITY           SKY/WX    TMP DP  RH WIND       PRES   REMARKS
Hazleton       FLURRIES  32  23  69 W7        29.93R WCI  26
Scranton       CLOUDY    33  26  75 SW10      29.92R WCI  25
$$
&&
KEY
WCI = Wind Chill Index
VSB = Visibility
HX  = Heat Index
$$



USA.gov is the U.S. government's official web portal to all federal, state and local government web resources and services.